Weather in Izborsk

Russia / Pskov Oblast     57°42′27″N   27°51′40″E
temp.,
°C
wind,
m/s
gust,
m/s
humid.,
%
clouds,
%
prec.,
mm/h
press.,
hPa
HPBL,
m
9 may, sun
sun900:00+1w311831 0.0 1014271
03:000w311850 0.0 1015279
06:00+1wnw311870 0.0 1017317
09:00+7wnw365929 0.0 1018661
12:00+11w354263 0.0 10191744
15:00+13wsw343257 0.0 10192335
18:00+13sw3535100 0.0 10192306
21:00+7s396761 0.0 1020183
10 may, mon
mon1000:00+6s4116673 0.0 1020305
03:00+7s51470100 0.0 1020584
06:00+8s6156696 0.0 1020598
09:00+12ssw5126283 0.0 1020560
12:00+17ssw695054 0.0 10211085
15:00+20ssw694666 0.0 10211594
18:00+19s595422 0.0 10211450
21:00+15s5127248 0.0 1022492
11 may, tue
tue1100:00+12s5147885 0.0 1024459
03:00+10s4138876 0.0 1025338
06:00+9s4128644 0.0 1025313
09:00+14s595970 0.0 1025547
12:00+18sse574692 0.0 10251117
15:00+20sse574093 0.0 10241266
18:00+20sse474879 0.0 10241114
21:00+14se3107796 0.0 1023227
12 may, wed
wed1200:00+11sse3107539 0.0 1024182
03:00+8sse26815 0.0 1024109
06:00+9sse248212 0.0 102495
09:00+15se35651 0.0 1024380
12:00+20ese45555 0.0 10221022
15:00+22e47455 0.0 10202071
18:00+20e385989 0.0 1018570
21:00+15ese3989100 0.4 1018475
13 may, thu
thu1300:00+12sse389692 0.1 1019416
03:00+9ese269894 0.1 1018209
06:00+8e25966 0.0 1016152
09:00+11e279099 0.1 1014461
12:00+11ese41090100 1.5 1013857
15:00+15se6116079 2.1 10122011
18:00+13sse6136683 0.6 10131557
21:00+10se4107913 0.6 1013574